Location: Unspecified
(51.0950°N, 12.9690°E)
Time: 20:55:01
(UTC+00:00)

H-2A R/B - Pass Details

Date: 28 October 2021
Orbit: 732 x 837 km, 98.2° (Epoch: 01 December)

Event Time Altitude Azimuth Distance (km) Brightness Sun altitude
Rises 17:10:33 0° 170° (S) 3,363 5.3 -13.3°
Reaches altitude 10° 17:12:54 10° 172° (S) 2,440 4.6 -13.6°
Maximum altitude 17:18:19 72° 257° (WSW) 883 2.5 -14.5°
Drops below altitude 10° 17:23:48 10° 342° (NNW) 2,458 4.8 -15.3°
Sets 17:26:11 0° 345° (NNW) 3,391 5.5 -15.7°
